Station 41037 - Wrightsville Beach Offshore, NC (ILM3) Image indicating link to RSS feed of recent meteorological observations for station 41037


Conditions at 41037 as of
(10:08 pm EDT on 04/14/2024)
0208 GMT on 04/15/2024:
     

Click on the graph icon in the table below to see a time series plot of the last five days of that observation.

5-day plot - Wind Direction Wind Direction (WDIR): SW ( 220 deg true )
5-day plot - Wind Speed Wind Speed (WSPD):8.0 m/s
5-day plot - Wind Gust Wind Gust (GST):10.0 m/s
5-day plot - Atmospheric Pressure Atmospheric Pressure (PRES):1017.6 mb
5-day plot - Air Temperature Air Temperature (ATMP): 18.9 °C
5-day plot - Water Temperature Water Temperature (WTMP): 17.9 °C
5-day plot - Dew Point Dew Point (DEWP): 16.2 °C
5-day plot - Wind Speed at 10 Meters Wind Speed at 10 meters (WSPD10M): 9 m/s
5-day plot - Wind Speed at 20 Meters Wind Speed at 20 meters (WSPD20M): 10 m/s
5-day plot -  Wind Speed, Wind Gust and Atmospheric Pressure Combined plot of Wind Speed, Gust, and Air Pressure
Previous observations
TIME
(EDT)
5-day plot - Wind Direction
WDIR
 
5-day plot - Wind Speed
WSPD
m/s
5-day plot - Wind Gust
GST
m/s
5-day plot - Wave Height
WVHT
m
5-day plot - Dominant Wave Period
DPD
sec
5-day plot - Average Wave Period
APD
sec
5-day plot - Mean Wave Direction
MWD
 
5-day plot - Atmospheric Pressure
PRES
mb
5-day plot - Pressure Tendency
PTDY
mb
5-day plot - Air Temperature
ATMP
°C
5-day plot - Water Temperature
WTMP
°C
5-day plot - Dew Point
DEWP
°C
5-day plot - Salinity
SAL
psu
5-day plot - Visibility
VIS
km
5-day plot - Tide (above MLLW)
TIDE
m
2024-04-14 09:08 pm SW 7.0 10.0----1017.4- 18.7 18.1 16.2---
2024-04-14 08:08 pm SW 7.0 10.0----1017.1- 18.6 18.1 16.4---
2024-04-14 07:08 pm SW 6.0 8.0----1017.5- 19.0 18.4 16.6---
2024-04-14 06:08 pm SW 5.0 6.0----1017.9- 19.5 18.6 16.7---
2024-04-14 05:08 pmSSW 4.0 5.0----1018.2- 19.6 18.6 15.7---
2024-04-14 04:08 pm S 4.0 5.0----1018.7- 19.5 18.6 14.9---
2024-04-14 03:08 pmSSE 2.0 4.0----1019.6- 19.4 18.6 13.6---
2024-04-14 02:08 pm S 3.0 5.0----1020.7- 19.0 18.5 13.5---
2024-04-14 01:08 pmSSW 3.0 4.0----1021.0- 18.7 18.4 13.3---
2024-04-14 12:08 pm SE 1.0 4.0----1021.8- 18.4 18.1 12.8---
2024-04-14 11:08 amSSW 1.0 3.0----1021.9- 18.6 18.0 12.9---
2024-04-14 10:08 am W 1.0 2.0----1022.0- 18.2 17.7 12.7---
2024-04-14 09:08 am N 1.0 3.0----1022.0- 18.3 17.5 12.5---
2024-04-14 08:08 amNNW 2.0 5.0----1021.7- 17.7 17.5 12.4---
2024-04-14 06:08 amWNW 3.0 5.0----1019.9- 17.7 17.5 12.5---
2024-04-14 05:08 am W 4.0 6.0----1019.7- 17.8 17.6 14.1---
2024-04-14 04:08 am W 4.0 5.0----1019.3- 17.8 17.6 15.5---
2024-04-14 03:08 am W 4.0 6.0----1019.1- 18.1 17.6 15.2---
2024-04-14 02:08 amWSW 4.0 7.0----1019.0- 18.1 17.6 15.4---
2024-04-14 01:08 amWSW 5.0 8.0----1019.0- 18.3 17.6 15.0---
2024-04-14 12:08 am SW 5.0 7.0----1019.1- 18.5 17.6 15.0---
2024-04-13 11:08 pm SW 5.0 7.0----1019.1- 18.5 17.6 15.2---
2024-04-13 10:08 pmWSW 5.0 7.0----1018.9- 18.4 17.6 15.2---